#timestamp,LO_Frequency,Hit,StdDev 
1543942815.8,286046997.8,N
1543942835.6,286046997.8,N
1543942855.5,286046996.7,Y
1543942875.3,286047000.3,P
1543942895.1,286047001.1,N
1543942915.9,286047000.4,N
1543942935.7,286046998.6,N
1543942955.5,286046998.8,N
1543942975.4,286047001.1,N
1543942995.2,286046999.9,N
1543943015.1,286047001.9,N
1543943016.0,286047001.9,N
1543943035.8,286047002.4,N
1543943055.6,286046999.9,N
1543943075.5,286047001.9,N
1543943095.3,286046999.8,N
1543943115.2,286047005.4,Y
1543943135.9,286047003.3,P
1543943155.7,286047005.4,P
1543943175.6,286047005.5,N
1543943195.4,286047007.5,Y
1543943215.3,286047004.7,P
1543943235.1,286047009.1,P
1543943236.0,286047009.1,P
1543943255.8,286047008.4,Y
1543943275.7,286047002.8,P
1543943295.5,286047002.6,N
1543943315.3,286047004.4,N
1543943335.2,286047003.8,N
1543943355.0,286047004.2,N
1543943355.9,286047004.2,Y
1543943375.8,286047004.6,P
1543943395.6,286047005.8,P
1543943415.4,286047013.5,P
1543943435.3,286047016.0,Y
1543943455.1,286047011.9,P
1543943475.9,286047008.2,P
1543943495.7,286047009.9,P
1543943515.5,286047010.3,Y
1543943535.4,286047001.2,P
1543943555.2,286046998.9,N
1543943575.0,286046995.4,N
1543943576.0,286046995.4,N
1543943595.8,286046996.2,N
1543943615.6,286046994.5,N
1543943635.5,286046992.8,N
1543943655.3,286046990.7,N
1543943675.1,286046988.6,N
1543943695.9,286046988.1,N
1543943715.7,286046986.7,N
1543943735.6,286046982.2,N
1543943755.4,286046982.2,N
1543943775.2,286046982.9,N
1543943795.1,286046980.8,N
1543943796.0,286046980.8,N
1543943815.8,286046978.9,N
1543943835.6,286046981.4,N
1543943855.5,286046979.4,N
1543943875.3,286046980.1,N
1543943895.2,286046980.0,N
1543943915.9,286046980.2,N
1543943935.7,286046980.0,N
1543943955.6,286046980.1,N
1543943975.4,286046981.9,N
1543943995.2,286046979.8,N
1543944015.1,286046981.8,N
1543944016.0,286046981.8,N
1543944035.8,286046981.3,N
1543944055.7,286046981.6,N
1543944075.5,286046981.8,N
1543944095.3,286046981.6,Y
1543944115.2,286046999.6,P
1543944135.0,286046999.3,N
1543944135.9,286046999.3,N
1543944155.8,286047000.8,N
1543944175.6,286047000.5,N
1543944195.4,286047001.1,N
1543944215.3,286046997.0,N
1543944235.1,286046996.5,N
1543944255.8,286046999.3,N
1543944275.7,286046998.8,N
1543944295.5,286046998.3,N
1543944315.4,286046999.1,N
1543944335.2,286046998.5,N
1543944355.0,286046998.3,N
1543944355.9,286046998.3,N
1543944375.8,286046999.3,N
1543944395.6,286046999.4,N
1543944415.4,286046999.3,N
1543944435.3,286046996.7,N
1543944455.1,286046999.6,N
1543944475.9,286046996.6,N
1543944495.7,286046996.9,N
1543944515.5,286046999.3,N
1543944535.4,286046998.9,N
1543944555.2,286046998.4,N
1543944575.0,286047000.8,N
1543944575.9,286047000.8,N
1543944595.8,286047000.9,N
1543944615.6,286047000.2,N
1543944635.5,286047002.6,N
1543944655.3,286047001.6,N
1543944675.1,286047001.0,N
1543944695.9,286046998.1,N
1543944715.7,286047000.7,N
1543944735.6,286047001.0,N
1543944755.4,286047000.5,N
1543944775.2,286046999.3,N
1543944795.1,286046999.1,N
1543944796.0,286046999.1,N
1543944815.8,286046999.4,N
1543944835.6,286047000.7,N
1543944855.5,286047000.6,N
1543944875.3,286047002.4,N
1543944895.2,286046998.3,N
1543944915.9,286046999.6,N
1543944935.7,286046998.8,N
1543944955.6,286046998.4,N
1543944975.4,286046999.4,N
1543944995.2,286046999.2,N
1543945015.1,286046996.9,N
1543945016.0,286046996.9,N
1543945035.8,286046999.3,N
1543945055.7,286046998.6,N
1543945075.5,286046999.7,N
1543945095.3,286047001.5,N
1543945115.2,286047000.0,N
1543945135.0,286046999.9,N
1543945135.9,286046999.9,N
1543945155.8,286046999.7,N
1543945175.6,286047000.9,N
1543945195.4,286047002.1,N
1543945215.3,286047002.3,N
1543945235.1,286047002.8,N
1543945255.8,286047000.3,N
1543945275.7,286046999.9,N
1543945295.5,286047001.1,N
1543945315.4,286046998.1,N
1543945335.2,286046998.9,N
1543945355.0,286046999.5,N
1543945355.9,286046999.5,N
1543945375.8,286046999.5,N
1543945395.6,286046996.6,N
1543945415.5,286046996.7,N
1543945435.3,286046998.3,N
1543945455.1,286046998.2,N
1543945475.9,286047000.6,N
1543945495.7,286047001.5,N
1543945515.5,286047000.1,N
1543945535.4,286047000.1,N
1543945555.2,286046998.9,N
1543945575.1,286047000.0,N
1543945576.0,286047000.0,N
1543945595.8,286047001.8,N
1543945615.6,286047001.8,N
1543945635.5,286047001.9,N
1543945655.3,286047002.2,N
1543945675.1,286047001.5,N
1543945695.9,286047003.3,N
1543945715.7,286047003.6,N
1543945735.6,286047005.5,Y
1543945755.4,286047007.4,P
1543945775.2,286047005.7,N
1543945795.1,286047005.3,N
1543945796.0,286047005.3,N
1543945815.8,286047005.4,N
1543945835.7,286047003.4,N
1543945855.5,286047005.2,N
1543945875.3,286047005.9,Y
1543945895.2,286047001.0,P
1543945915.0,286047000.4,N
1543945915.9,286047000.4,N
1543945935.8,286047000.7,N
1543945955.6,286047000.2,N
1543945975.4,286046999.9,N
1543945995.3,286047001.0,N
1543946015.1,286046999.7,N
1543946035.8,286047002.4,N
1543946055.7,286047002.8,N
1543946075.5,286047001.3,N
1543946095.4,286047001.9,N
1543946115.2,286047000.1,N
1543946135.0,286047000.4,N
1543946135.9,286047000.4,N
1543946155.8,286046998.3,N
1543946175.6,286046998.3,N
1543946195.4,286046999.3,N
1543946215.3,286047000.7,N
1543946235.1,286046998.1,N
1543946255.9,286046999.6,N
1543946275.7,286046998.9,N
1543946295.5,286046998.2,N
1543946315.4,286047001.0,N
1543946335.2,286046998.1,N
1543946355.0,286046999.3,N
1543946355.9,286046999.3,N
1543946375.8,286046999.5,N
1543946395.6,286046999.4,N
